Location: Pagani
(40.7500°N, 14.6167°E)
Time: 08:37:19
(UTC+00:00)

Cosmos 1076 Rocket - Pass Details

Date: 15 May 2026
Orbit: 580 x 604 km, 82.5° (Epoch: 6 June)

Event Time Altitude Azimuth Distance (km) Brightness Sun altitude
Rises 20:54:22 0° 355° (N) 2,829 8.0 -23.7°
Reaches altitude 10° 20:56:36 10° 358° (N) 1,920 6.9 -23.9°
Enters shadow 21:00:21 60° 42° (NE) 675 3.7 -24.3°
